Weather in Marks

Russia / Saratov Oblast     51°42′47″N   46°44′24″E
temp.,
°C
wind,
m/s
gust,
m/s
humid.,
%
clouds,
%
prec.,
mm/h
press.,
hPa
HPBL,
m
15 august, mon
mon1501:00+21ne6144956 0.0 1018430
04:00+19ne4125197 0.0 1018276
07:00+20ene5114985 0.0 1019359
10:00+25ene793577 0.0 1020743
13:00+28ene7723100 0.0 10201486
16:00+29ene772054 0.0 10191710
19:00+27ne68235 0.0 1019872
22:00+20ne514425 0.0 1020277
16 august, tue
tue1601:00+20ne514435 0.0 1020350
04:00+18ne513495 0.0 1019327
07:00+19ene612535 0.0 1020355
10:00+26ene793516 0.0 1020665
13:00+31e782542 0.0 10191729
16:00+32e6722100 0.0 10182339
19:00+30ene5927100 0.0 1018539
22:00+24ene5133989 0.0 1019326
17 august, wed
wed1701:00+23ene61340100 0.0 1019319
04:00+21ene51244100 0.0 1019258
07:00+21ene61245100 0.0 1018328
10:00+25ene81134100 0.0 1018554
13:00+30e8923100 0.0 10171299
16:00+29e7925100 0.0 10161174
19:00+29ene5924100 0.0 1015709
22:00+25ne51334100 0.0 1015286
18 august, thu
thu1801:00+23ne4838100 0.0 1015172
04:00+24e51035100 0.0 1015280
07:00+23ene71335100 0.0 1015295
10:00+26e81232100 0.0 1016507
13:00+31e91226100 0.0 10151000
16:00+32e81024100 0.0 10151511
19:00+29ene81131100 0.1 1016620
22:00+26ene71136100 0.1 1017615
19 august, fri
fri1901:00+25ene81438100 0.0 1018566
04:00+24ene91534100 0.0 1018551
07:00+23e81643100 0.0 1020625
10:00+25e81235100 0.0 1022760
13:00+28e81023100 0.0 10221198
16:00+30e7820100 0.0 10211561
19:00+28ene61024100 0.0 1022783
22:00+25ene61327100 0.0 1022393